Weather History for KRIV - August, 2011

Change the Weather History Date:

Thursday, August 25, 2011

  Actual Average Record
Temperature  
Mean Temperature 82 °F -  
Max Temperature 101 °F 92 °F 109 °F (2010)
Min Temperature 64 °F 62 °F 57 °F (2004)
Cooling Degree Days 18    
Growing Degree Days 32 (Base 50)    
Moisture  
Dew Point 54 °F    
Average Humidity 41    
Maximum Humidity 73    
Minimum Humidity 18    
Precipitation  
Precipitation 0.00 in - - ()
Sea Level Pressure  
Sea Level Pressure 29.83 in    
Wind  
Wind Speed 4 mph (WNW)    
Max Wind Speed 16 mph    
Max Gust Speed -    
Visibility 10 miles    
Events      
Averages and records for this station are not official NWS values.
T = Trace of Precipitation, MM = Missing Value Source: NWS Daily Summary

Daily Weather History Graph

Daily Weather History Graph

Search for Another Location

Airport or City:

Trip Planner

Search our weather history database for the weather conditions in past years. The results will help you decide how hot, cold, wet, or windy it might be!

Date:

Astronomy

Aug. 25, 2011 Rise Set
Actual Time 6:17 AM PDT 7:23 PM PDT
Civil Twilight 5:51 AM PDT 7:49 PM PDT
Nautical Twilight 5:21 AM PDT 8:20 PM PDT
Astronomical Twilight 4:49 AM PDT 8:52 PM PDT
Moon 2:30 AM PDT (8/25) 4:55 PM PDT (8/25)
Length of Visible Light 13h 57m
Length of Day
13h 06m
Waning Crescent, 14% of the Moon is Illuminated
Aug 25
Waning Crescent
Aug 28
New
Sep 4
First Quarter
Sep 12
Full
Sep 20
Last Quarter

Hourly Weather History & Observations

Time (PDT) Temp. Heat Index Dew Point Humidity Pressure Visibility Wind Dir Wind Speed Gust Speed Precip Events Conditions
12:55 AM 68.0 °F - 55.6 °F 64% 29.86 in 10.0 mi WSW 3.5 mph - N/A   Clear
1:55 AM 67.3 °F - 54.7 °F 64% 29.85 in 10.0 mi Calm Calm - N/A   Clear
2:55 AM 65.5 °F - 55.6 °F 70% 29.84 in 10.0 mi Calm Calm - N/A   Clear
3:55 AM 66.6 °F - 54.7 °F 66% 29.83 in 10.0 mi Calm Calm - N/A   Clear
4:55 AM 64.6 °F - 55.6 °F 73% 29.83 in 10.0 mi Calm Calm - N/A   Clear
5:55 AM 65.3 °F - 55.4 °F 70% 29.84 in 10.0 mi Calm Calm - N/A   Clear
6:55 AM 65.7 °F - 55.2 °F 69% 29.86 in 10.0 mi Calm Calm - N/A   Clear
7:55 AM 75.9 °F - 56.7 °F 51% 29.86 in 10.0 mi Calm Calm - N/A   Clear
8:55 AM 83.7 °F 82.7 °F 55.4 °F 38% 29.87 in 10.0 mi ESE 3.5 mph - N/A   Clear
9:55 AM 89.8 °F - 51.3 °F 27% 29.86 in 10.0 mi Calm Calm - N/A   Clear
10:55 AM 95.2 °F 92.7 °F 53.2 °F 24% 29.86 in 10.0 mi NNW 8.1 mph - N/A   Clear
11:55 AM 95.7 °F 94.0 °F 55.9 °F 26% 29.85 in 10.0 mi WNW 10.4 mph - N/A   Clear
12:55 PM 98.2 °F 95.9 °F 53.2 °F 22% 29.83 in 10.0 mi WNW 10.4 mph - N/A   Clear
1:55 PM 99.9 °F - 51.6 °F 20% 29.81 in 10.0 mi WNW 12.7 mph - N/A   Clear
2:55 PM 101.3 °F - 50.9 °F 18% 29.79 in 10.0 mi NW 16.1 mph - N/A   Clear
3:55 PM 100.8 °F - 52.2 °F 20% 29.78 in 10.0 mi NW 12.7 mph - N/A   Clear
4:55 PM 99.5 °F 97.6 °F 54.0 °F 22% 29.77 in 10.0 mi WNW 13.8 mph - N/A   Clear
5:55 PM 96.4 °F 95.0 °F 55.9 °F 26% 29.77 in 10.0 mi NW 13.8 mph - N/A   Clear
6:55 PM 92.3 °F 90.5 °F 55.4 °F 29% 29.78 in 10.0 mi WNW 8.1 mph - N/A   Clear
7:55 PM 86.5 °F 84.9 °F 54.9 °F 34% 29.80 in 10.0 mi NNW 5.8 mph - N/A   Clear
8:55 PM 83.7 °F 82.5 °F 54.7 °F 37% 29.81 in 10.0 mi NNW 5.8 mph - N/A   Clear
9:55 PM 81.7 °F - 52.9 °F 37% 29.82 in 10.0 mi SSW 3.5 mph - N/A   Clear
10:55 PM 76.5 °F - 51.8 °F 42% 29.83 in 10.0 mi NW 3.5 mph - N/A   Clear
11:55 PM 76.3 °F - 51.8 °F 42% 29.84 in 10.0 mi Calm Calm - N/A   Clear